Regional Weather Roundup
Issued by NWS

Home | Current Version | Previous Version | Text Only | Print | Product List | Glossary Off
Versions: 1 2 3 4 5 6 7 8 9 10 11 12 13 14 15 16 17 18 19 20 21 22 23 24 25 26 27

000
ASUS45 KCYS 191110
RWRWY

WYOMING REGIONAL WEATHER ROUNDUP
NATIONAL WEATHER SERVICE CHEYENNE WY
500 AM MDT SAT APR 19 2014

NOTE:  "FAIR" INDICATES FEW OR NO CLOUDS BELOW 12,000 FEET
WITH NO SIGNIFICANT WEATHER AND/OR OBSTRUCTIONS TO VISIBILITY.

WYZ001-191200-
YELLOWSTONE NATIONAL PARK

CITY           SKY/WX    TMP DP  RH WIND       PRES   REMARKS
LK YELLOWSTONE   N/A     19  16  88 CALM      30.05S
W YELLOWSTONE  NOT AVBL

$$
WYZ002>013-054>058-071-098>099-191200-
NORTHERN WYOMING

CITY           SKY/WX    TMP DP  RH WIND       PRES   REMARKS
JACKSON          N/A     30  27  86 S3        30.03S
CODY           PTCLDY    34  23  64 NW3       29.96R
GREYBULL       CLEAR     34  29  82 CALM      29.95R
WORLAND        PTCLDY    33  28  81 SE5       29.94R WCI  29
SHERIDAN         N/A     37  27  65 CALM        N/A
BUFFALO        CLEAR     37  26  64 SW7       29.99R WCI  32
GILLETTE       CLEAR     27  22  81 S5        29.98R WCI  22
HULETT         FAIR      36  19  51 S6        29.97  WCI  31
NEWCASTLE      FAIR      34  23  64 NW7       29.97  WCI  28

$$
WYZ014>020-022>026-101>103-191200-
CENTRAL WYOMING

CITY           SKY/WX    TMP DP  RH WIND       PRES   REMARKS
BIG PINEY      CLEAR     23  13  65 CALM      30.06S
PINEDALE       MOSUNNY   25  19  80 NW6       30.06S WCI  18
DUBOIS         FAIR      32  12  43 N15G22    29.97S WCI  22
LANDER         CLEAR     38  16  40 SE6       29.96S WCI  33
RIVERTON       CLEAR     36  13  38 SW7       29.98R WCI  30
CASPER         PTCLDY    27  24  89 NW3       30.00S
DOUGLAS        CLEAR     35  31  85 W3        30.02R

$$
WYZ021-027>030-104>119-191200-
SOUTHERN WYOMING

CITY           SKY/WX    TMP DP  RH WIND       PRES   REMARKS
EVANSTON       PTCLDY    38  30  73 NE6       30.06S WCI  33
FORT BRIDGER   PTSUNNY   42  25  50 NW3       30.09S
ROCK SPRINGS   MOCLDY    41  29  62 SW6       30.05R
DIXON          CLOUDY    37  32  82 E5        30.09R WCI  33
RAWLINS        CLEAR     40  27  59 SW6       30.05R
SARATOGA       FAIR      34  30  86 CALM      30.06S
LARAMIE        MOCLDY    38  30  73 W13       30.04R WCI  30
CHEYENNE       CLOUDY    48  32  53 W10       29.99S
TORRINGTON     CLOUDY    45  31  58 N13G21    29.97R
PINE BLUFFS    FAIR      50  34  53 NW13      29.95R

$$



USA.gov is the U.S. government's official web portal to all federal, state and local government web resources and services.